Port Huron, MI

12:49 PM EDT on October 22, 2017 (GMT -0400)
Saint Clair County International

Weather History for KPHN - November, 2012

Change the Weather History Date:

Thursday, November 8, 2012

  Actual Average (KMTC) Record (KMTC)
Temperature  
Mean Temperature 34 °F -  
Max Temperature 42 °F 50 °F 69 °F (1986)
Min Temperature 26 °F 36 °F 15 °F (1991)
Degree Days  
Heating Degree Days 31    
Moisture  
Dew Point 29 °F    
Average Humidity 80    
Maximum Humidity 100    
Minimum Humidity 61    
Precipitation  
Precipitation 0.00 in - - ()
Sea Level Pressure  
Sea Level Pressure 30.16 in    
Wind  
Wind Speed 2 mph (NW)    
Max Wind Speed 9 mph    
Max Gust Speed -    
Visibility 9 miles    
Events      
Averages and records for this station are not official NWS values.
T = Trace of Precipitation, MM = Missing Value Source: NWS Daily Summary

Daily Weather History Graph

Daily Weather History Graph

Search for Another Location

Airport or City:

Trip Planner

Search our weather history database for the weather conditions in past years. The results will help you decide how hot, cold, wet, or windy it might be!

Date:

Astronomy

Nov. 08, 2012 Rise Set
Actual Time 7:13 AM EST 5:13 PM EST
Civil Twilight 6:43 AM EST 5:43 PM EST
Nautical Twilight 6:10 AM EST 6:17 PM EST
Astronomical Twilight 5:36 AM EST 6:50 PM EST
Moon 12:59 AM EST (11/8) 2:01 PM EST (11/8)
Length of Visible Light 10h 59m
Length of Day
9h 59m
Waning Crescent, 33% of the Moon is Illuminated
Nov 8
Waning Crescent
Nov 13
New
Nov 20
First Quarter
Nov 28
Full
Dec 6
Last Quarter

Hourly Weather History & Observations

Time (EST) Temp. Windchill Dew Point Humidity Pressure Visibility Wind Dir Wind Speed Gust Speed Precip Events Conditions
12:16 AM 28.4 °F - 26.6 °F 93% 30.15 in 7.0 mi Calm Calm - N/A   Overcast
12:36 AM 28.4 °F - 26.6 °F 93% 30.15 in 7.0 mi Calm Calm - N/A   Overcast
12:56 AM 28.4 °F - 28.4 °F 100% 30.14 in 10.0 mi Calm Calm - N/A   Overcast
1:16 AM 30.2 °F - 28.4 °F 93% 30.14 in 10.0 mi Calm Calm - N/A   Overcast
1:36 AM 30.2 °F - 28.4 °F 93% 30.14 in 7.0 mi Calm Calm - N/A   Overcast
1:56 AM 30.2 °F - 28.4 °F 93% 30.14 in 10.0 mi Calm Calm - N/A   Overcast
2:16 AM 30.2 °F - 28.4 °F 93% 30.14 in 7.0 mi Calm Calm - N/A   Overcast
2:36 AM 28.4 °F - 28.4 °F 100% 30.15 in 7.0 mi Calm Calm - N/A   Overcast
2:56 AM 30.2 °F - 28.4 °F 93% 30.15 in 7.0 mi Calm Calm - N/A   Overcast
3:16 AM 30.2 °F - 28.4 °F 93% 30.14 in 7.0 mi Calm Calm - N/A   Overcast
3:36 AM 30.2 °F - 28.4 °F 93% 30.14 in 7.0 mi Calm Calm - N/A   Overcast
3:56 AM 30.2 °F 26.7 °F 28.4 °F 93% 30.15 in 7.0 mi WNW 3.5 mph - N/A   Overcast
4:16 AM 30.2 °F 25.4 °F 28.4 °F 93% 30.15 in 10.0 mi West 4.6 mph - N/A   Overcast
4:36 AM 30.2 °F 26.7 °F 28.4 °F 93% 30.15 in 10.0 mi West 3.5 mph - N/A   Overcast
4:56 AM 32.0 °F 27.5 °F 28.4 °F 87% 30.16 in 10.0 mi NW 4.6 mph - N/A   Overcast
5:16 AM 32.0 °F 27.5 °F 30.2 °F 93% 30.16 in 10.0 mi NW 4.6 mph - N/A   Overcast
5:36 AM 33.8 °F 27.7 °F 30.2 °F 87% 30.17 in 10.0 mi NNW 6.9 mph - N/A   Overcast
5:56 AM 35.6 °F 32.8 °F 28.4 °F 75% 30.17 in 10.0 mi North 3.5 mph - N/A   Overcast
6:16 AM 35.6 °F - 28.4 °F 75% 30.17 in 10.0 mi Calm Calm - N/A   Overcast
6:36 AM 35.6 °F 32.8 °F 28.4 °F 75% 30.17 in 10.0 mi WNW 3.5 mph - N/A   Overcast
6:56 AM 35.6 °F 32.8 °F 28.4 °F 75% 30.18 in 10.0 mi WNW 3.5 mph - N/A   Overcast
7:16 AM 35.6 °F - 28.4 °F 75% 30.19 in 10.0 mi Calm Calm - N/A   Overcast
7:36 AM 35.6 °F 32.8 °F 30.2 °F 81% 30.19 in 10.0 mi WNW 3.5 mph - N/A   Overcast
7:56 AM 35.6 °F 32.8 °F 30.2 °F 81% 30.20 in 10.0 mi NW 3.5 mph - N/A   Overcast
8:16 AM 37.4 °F 34.9 °F 30.2 °F 75% 30.20 in 10.0 mi WNW 3.5 mph - N/A   Overcast
8:36 AM 37.4 °F 34.9 °F 30.2 °F 75% 30.20 in 10.0 mi WNW 3.5 mph - N/A   Overcast
8:56 AM 37.4 °F 33.8 °F 30.2 °F 75% 30.20 in 10.0 mi NW 4.6 mph - N/A   Overcast
9:16 AM 37.4 °F 32.8 °F 30.2 °F 75% 30.20 in 10.0 mi WNW 5.8 mph - N/A   Overcast
9:36 AM 39.2 °F 35.9 °F 30.2 °F 70% 30.20 in 10.0 mi NW 4.6 mph - N/A   Overcast
9:56 AM 39.2 °F 35.0 °F 30.2 °F 70% 30.20 in 10.0 mi WNW 5.8 mph - N/A   Overcast
10:16 AM 41.0 °F 39.0 °F 30.2 °F 65% 30.20 in 10.0 mi NNW 3.5 mph - N/A   Overcast
10:36 AM 41.0 °F 37.1 °F 30.2 °F 65% 30.20 in 10.0 mi NW 5.8 mph - N/A   Overcast
10:56 AM 41.0 °F 39.0 °F 30.2 °F 65% 30.20 in 10.0 mi North 3.5 mph - N/A   Overcast
11:16 AM 41.0 °F 38.0 °F 30.2 °F 65% 30.20 in 10.0 mi NW 4.6 mph - N/A   Overcast
11:36 AM 41.0 °F 35.2 °F 30.2 °F 65% 30.20 in 10.0 mi NW 9.2 mph - N/A   Overcast
11:56 AM 41.0 °F 38.0 °F 30.2 °F 65% 30.19 in 10.0 mi North 4.6 mph - N/A   Overcast
12:16 PM 41.0 °F 39.0 °F 30.2 °F 65% 30.19 in 10.0 mi NW 3.5 mph - N/A   Overcast
12:36 PM 41.0 °F - 30.2 °F 65% 30.18 in 10.0 mi Calm Calm - N/A   Overcast
12:56 PM 41.0 °F 37.1 °F 30.2 °F 65% 30.18 in 10.0 mi North 5.8 mph - N/A   Overcast
1:16 PM 41.0 °F 39.0 °F 30.2 °F 65% 30.17 in 10.0 mi NNW 3.5 mph - N/A   Overcast
1:36 PM 42.8 °F - 30.2 °F 61% 30.16 in 10.0 mi Calm Calm - N/A   Overcast
1:56 PM 42.8 °F 41.1 °F 30.2 °F 61% 30.16 in 10.0 mi East 3.5 mph - N/A   Overcast
2:16 PM 42.8 °F 41.1 °F 30.2 °F 61% 30.16 in 10.0 mi NE 3.5 mph - N/A   Overcast
2:36 PM 42.8 °F 38.0 °F 32.0 °F 66% 30.16 in 10.0 mi North 8.1 mph - N/A   Overcast
2:56 PM 42.8 °F 41.1 °F 30.2 °F 61% 30.16 in 10.0 mi WNW 3.5 mph - N/A   Overcast
3:16 PM 42.8 °F - 30.2 °F 61% 30.16 in 10.0 mi Calm Calm - N/A   Overcast
3:36 PM 42.8 °F 41.1 °F 30.2 °F 61% 30.16 in 10.0 mi NW 3.5 mph - N/A   Overcast
3:56 PM 42.8 °F - 30.2 °F 61% 30.16 in 10.0 mi Calm Calm - N/A   Overcast
4:16 PM 42.8 °F - 30.2 °F 61% 30.16 in 10.0 mi Calm Calm - N/A   Overcast
4:36 PM 42.8 °F - 32.0 °F 66% 30.16 in 10.0 mi Calm Calm - N/A   Overcast
4:56 PM 42.8 °F - 30.2 °F 61% 30.16 in 10.0 mi Calm Calm - N/A   Overcast
5:16 PM 41.0 °F - 32.0 °F 70% 30.16 in 10.0 mi Calm Calm - N/A   Scattered Clouds
5:36 PM 37.4 °F - 30.2 °F 75% 30.15 in 10.0 mi Calm Calm - N/A   Clear
5:56 PM 33.8 °F - 28.4 °F 81% 30.15 in 10.0 mi Calm Calm - N/A   Clear
6:16 PM 33.8 °F - 30.2 °F 87% 30.15 in 10.0 mi Calm Calm - N/A   Clear
6:36 PM 33.8 °F - 30.2 °F 87% 30.15 in 10.0 mi Calm Calm - N/A   Clear
6:56 PM 32.0 °F - 28.4 °F 87% 30.15 in 10.0 mi Calm Calm - N/A   Clear
7:16 PM 30.2 °F - 26.6 °F 86% 30.15 in 10.0 mi Calm Calm - N/A   Clear
7:36 PM 30.2 °F - 28.4 °F 93% 30.15 in 10.0 mi Calm Calm - N/A   Clear
7:56 PM 28.4 °F - 28.4 °F 100% 30.15 in 10.0 mi Calm Calm - N/A   Clear
8:16 PM 30.2 °F 26.7 °F 28.4 °F 93% 30.14 in 10.0 mi SSW 3.5 mph - N/A   Clear
8:36 PM 32.0 °F 28.7 °F 30.2 °F 93% 30.14 in 10.0 mi SSW 3.5 mph - N/A   Clear
8:56 PM 33.8 °F 30.8 °F 30.2 °F 87% 30.14 in 10.0 mi SSW 3.5 mph - N/A   Clear
9:16 PM 32.0 °F - 30.2 °F 93% 30.14 in 10.0 mi Calm Calm - N/A   Clear
9:36 PM 30.2 °F - 28.4 °F 93% 30.14 in 10.0 mi Calm Calm - N/A   Clear
9:56 PM 30.2 °F - 28.4 °F 93% 30.14 in 5.0 mi Calm Calm - N/A   Clear
10:16 PM 28.4 °F - 26.6 °F 93% 30.14 in 4.0 mi Calm Calm - N/A   Clear
10:36 PM 28.4 °F - 28.4 °F 100% 30.14 in 5.0 mi Calm Calm - N/A   Clear
10:56 PM 28.4 °F - 26.6 °F 93% 30.14 in 4.0 mi Calm Calm - N/A   Clear
11:16 PM 26.6 °F - 26.6 °F 100% 30.14 in 4.0 mi Calm Calm - N/A   Clear
11:36 PM 28.4 °F - 26.6 °F 93% 30.14 in 5.0 mi Calm Calm - N/A   Clear
11:56 PM 26.6 °F - 26.6 °F 100% 30.14 in 4.0 mi Calm Calm - N/A   Clear